Terminal Aerodrome Forecast
Issued by NWS El Paso, TX

Home | Current Version | Previous Version | Text Only | Print | Product List | Glossary On
Versions: 1 2 3 4 5 6 7 8 9 10 11 12 13
000
FTUS44 KEPZ 272340
TAFELP
TAF
KELP 272340Z 2800/2824 25011G19KT P6SM SKC
     FM280500 VRB04KT P6SM SKC
     FM281700 17008KT P6SM SKC
     FM282100 22010KT P6SM SKC=

USA.gov is the U.S. government's official web portal to all federal, state and local government web resources and services.